DW3219 Weather Reports


Display with metric or nautical units.
time (UTC)temp
F
wind
direction
speed
MPH
gust
MPH
rain 1hr
in
rain 24hr
in
rain mn
in
humidity
%
barometer
mb
20260901040006 64 187 0.0 0.0 0.00 0.00 0.00 45 1009.9
20260901034508 65 182 0.0 0.0 0.00 0.00 0.00 44 1009.8
20260901033125 65 182 0.0 0.0 0.00 0.00 0.00 45 1009.7
20260901031607 65 182 0.0 0.0 0.00 0.00 0.00 44 1009.6
20260901030047 66 169 0.0 2.0 0.00 0.00 0.00 45 1009.3
20260901024543 68 86 0.0 0.0 0.00 0.00 0.00 41 1009.1
20260901023042 69 86 0.0 0.0 0.00 0.00 0.00 37 1009.1
20260901021534 71 80 0.0 0.0 0.00 0.00 0.00 35 1009.1
20260901020030 74 81 0.0 0.0 0.00 0.00 0.00 32 1009.2
20260901014525 75 81 0.0 0.0 0.00 0.00 0.00 28 1009.3
20260901013023 77 81 0.0 0.0 0.00 0.00 0.00 26 1009.3
20260901011508 78 81 0.0 0.0 0.00 0.00 0.00 22 1009.2
20260901010009 79 81 0.0 0.0 0.00 0.00 0.00 22 1009.1
20260901004504 80 76 0.0 0.0 0.00 0.00 0.00 19 1008.9
20260901003103 80 76 0.0 0.0 0.00 0.00 0.00 20 1009.1
20260901001603 81 85 0.0 3.0 0.00 0.00 0.00 20 1009.2
20260901000057 81 73 0.0 0.0 0.00 0.00 0.00 19 1009.4
20260831234554 82 103 0.0 0.0 0.00 0.00 0.00 18 1009.5
20260831233052 82 80 0.0 0.0 0.00 0.00 0.00 14 1009.8
20260831231537 82 103 0.0 3.0 0.00 0.00 0.00 13 1009.8
20260831230043 81 66 0.0 6.0 0.00 0.00 0.00 14 1009.7
20260831224522 82 92 0.0 6.0 0.00 0.00 0.00 17 1009.8
20260831223021 82 80 0.0 0.0 0.00 0.00 0.00 14 1009.8
20260831221530 81 112 2.0 7.0 0.00 0.00 0.00 13 1010.0
20260831220017 81 96 1.0 8.0 0.00 0.00 0.00 14 1010.2
20260831214515 82 92 0.0 0.0 0.00 0.00 0.00 14 1010.4
20260831213011 81 155 0.0 1.0 0.00 0.00 0.00 12 1010.7
20260831211511 81 41 1.0 8.0 0.00 0.00 0.00 13 1010.8
20260831210009 81 109 0.0 8.0 0.00 0.00 0.00 13 1011.0
20260831204551 82 182 0.0 0.0 0.00 0.00 0.00 12 1011.3
20260831203049 81 151 0.0 2.0 0.00 0.00 0.00 12 1011.5
20260831201537 81 193 0.0 4.0 0.00 0.00 0.00 12 1011.7
20260831200036 80 169 0.0 5.0 0.00 0.00 0.00 14 1011.9
20260831194601 79 150 0.0 8.0 0.00 0.00 0.00 16 1012.1
20260831193030 78 213 0.0 5.0 0.00 0.00 0.00 17 1012.2
20260831191529 76 146 0.0 9.0 0.00 0.00 0.00 22 1012.4
20260831190029 76 86 0.0 7.0 0.00 0.00 0.00 22 1012.5
20260831184541 76 144 0.0 4.0 0.00 0.00 0.00 21 1012.8
20260831183027 75 265 0.0 0.0 0.00 0.00 0.00 24 1012.8
20260831181521 75 132 0.0 6.0 0.00 0.00 0.00 26 1013.1
20260831180017 72 105 0.0 0.0 0.00 0.00 0.00 29 1013.2
20260831174513 71 79 0.0 3.0 0.00 0.00 0.00 40 1013.1
20260831173012 70 102 0.0 6.0 0.00 0.00 0.00 47 1013.3
20260831171515 68 128 0.0 2.0 0.00 0.00 0.00 48 1013.5
20260831170022 67 38 0.0 0.0 0.00 0.00 0.00 51 1013.6
20260831164510 66 84 0.0 0.0 0.00 0.00 0.00 53 1013.5
20260831163010 66 109 0.0 1.0 0.00 0.00 0.00 52 1013.5
20260831161611 66 163 0.0 1.0 0.00 0.00 0.00 50 1013.6
20260831160057 65 230 0.0 0.0 0.00 0.00 0.00 52 1013.6
20260831154611 63 231 0.0 3.0 0.00 0.00 0.00 53 1013.6
20260831153056 61 248 0.0 0.0 0.00 0.00 0.00 57 1013.7
20260831151555 58 248 0.0 0.0 0.00 0.00 0.00 62 1013.6
20260831150055 56 249 0.0 1.0 0.00 0.00 0.00 65 1013.6
20260831144554 54 271 0.0 1.0 0.00 0.00 0.00 69 1013.6
20260831143052 51 271 0.0 1.0 0.00 0.00 0.00 74 1013.3
20260831141539 49 269 0.0 3.0 0.00 0.00 0.00 79 1013.1
20260831140037 47 268 0.0 1.0 0.00 0.00 0.00 83 1013.0
20260831134536 45 269 0.0 0.0 0.00 0.00 0.00 85 1012.8
20260831133036 45 265 0.0 0.0 0.00 0.00 0.00 85 1012.7
20260831131532 44 266 0.0 0.0 0.00 0.00 0.00 87 1012.4
20260831130029 43 264 0.0 0.0 0.00 0.00 0.00 86 1012.1
20260831124527 44 264 0.0 0.0 0.00 0.00 0.00 86 1011.8
20260831123025 44 264 0.0 0.0 0.00 0.00 0.00 86 1011.8
20260831121513 45 264 0.0 0.0 0.00 0.00 0.00 84 1011.5
20260831120007 45 264 0.0 0.0 0.00 0.00 0.00 84 1011.5
20260831114505 46 264 0.0 0.0 0.00 0.00 0.00 85 1011.2
20260831113003 46 266 0.0 0.0 0.00 0.00 0.00 83 1011.1
20260831111503 46 279 0.0 0.0 0.00 0.00 0.00 82 1010.8
20260831110100 47 275 0.0 0.0 0.00 0.00 0.00 82 1010.9
20260831104557 47 278 0.0 0.0 0.00 0.00 0.00 82 1010.9
20260831103105 47 271 0.0 0.0 0.00 0.00 0.00 82 1010.8
20260831101541 48 274 0.0 0.0 0.00 0.00 0.00 82 1010.6
20260831100041 47 274 0.0 1.0 0.00 0.00 0.00 82 1010.3
20260831094538 48 270 0.0 1.0 0.00 0.00 0.00 80 1010.1
20260831093035 49 271 0.0 0.0 0.00 0.00 0.00 80 1010.0
20260831091533 49 271 0.0 2.0 0.00 0.00 0.00 81 1010.0
20260831090030 49 275 0.0 0.0 0.00 0.00 0.00 81 1009.8
20260831084528 50 267 0.0 0.0 0.00 0.00 0.00 80 1009.5
20260831083026 51 274 0.0 1.0 0.00 0.00 0.00 79 1009.2
20260831081511 51 273 0.0 0.0 0.00 0.00 0.00 79 1009.2
20260831080027 52 274 0.0 0.0 0.00 0.00 0.00 78 1009.0
20260831074507 52 275 0.0 0.0 0.00 0.00 0.00 77 1009.0
20260831073016 53 275 0.0 0.0 0.00 0.00 0.00 77 1008.8
20260831071502 53 279 0.0 4.0 0.00 0.00 0.00 76 1008.8
20260831070100 54 252 0.0 5.0 0.00 0.00 0.00 75 1008.7
20260831070002 54 253 0.0 5.0 0.00 0.00 0.00 75 1008.7
20260831064559 54 279 0.0 0.0 0.00 0.00 0.00 73 1008.7
20260831063057 54 275 0.0 5.0 0.00 0.00 0.00 72 1008.6
20260831061557 54 262 0.0 3.0 0.00 0.00 0.00 72 1008.5
20260831060044 54 279 0.0 0.0 0.00 0.00 0.00 72 1008.5
20260831054541 55 281 0.0 0.0 0.00 0.00 0.00 72 1008.4
20260831053037 56 281 0.0 3.0 0.00 0.00 0.00 69 1008.3
20260831051536 57 259 1.0 5.0 0.00 0.00 0.00 67 1008.2
20260831050031 58 251 0.0 0.0 0.00 0.00 0.00 66 1008.2
20260831044530 59 248 0.0 0.0 0.00 0.00 0.00 66 1008.1
20260831043028 59 248 0.0 0.0 0.00 0.00 0.00 64 1008.1
20260831041524 61 236 0.0 0.0 0.00 0.00 0.00 61 1008.1